sat.trackr.live / text

‹ back to catalog

STARLINK-30941

NORAD 58475 · 2023-186C

PAYLOAD ACTIVE UNKNOWN

§ Identity

Operator
Country
US
Launch date
2023-12-03
Launch site
AFETR
Launch vehicle
Mass (kg)
RCS (m²)

Purposes: comms

External: N2YO · Heavens-Above · Gunter

§ Orbital elements

Epoch: 2026-09-20T16:02:15.960192Z

Period
94.27 min
Inclination
43.0049°
Eccentricity
0.0001828
Mean motion
15.27579146 rev/d
Perigee alt
481.8 km
Apogee alt
484.3 km
Semi-major
6,861.2 km
B*
2.1189e-5
RAAN
46.0916°
Arg perigee
269.2825°
Mean anomaly
90.7817°
Rev number
15,567

§ Raw data

STARLINK-309411 58475U 23186C   26263.66824028  .00000321  00000+0  21189-4 0  99942 58475  43.0049  46.0916 0001828 269.2825  90.7817 15.27579146155673

JSON: /api/v1/satellites/58475 · /tle

For live sub-satellite position, see the globe view (requires WebGL).

§ Visibility from observer

Set your observer location to see the next 7 days of passes ≥ 10°. The values pass through the URL so the page stays shareable.

No JS? Fill the form by hand. The geolocation button needs JavaScript.